Regional Weather Roundup
Issued by NWS Pendleton, OR

Current Version | Previous Version | Text Only | Print | Product List | Glossary On
Versions: 1 2 3 4 5 6 7 8 9 10 11 12 13 14 15 16 17 18 19 20 21 22 23 24 25 26 27 28 29 30 31 32 33 34 35 36 37 38 39 40 41 42 43 44 45 46 47 48 49 50
000
ASUS46 KPDT 230625
RWRPDT
PENDLETON REGIONAL WEATHER ROUNDUP
NATIONAL WEATHER SERVICE PENDLETON OREGON
1100 PM PDT FRI AUG 22 2014

NOTE: FAIR INDICATES FEW OR NO CLOUDS BELOW 12,000 FEET WITH NO
SIGNIFICANT WEATHER AND/OR OBSTRUCTIONS TO VISIBILITY.

# INDICATES UNOFFICIAL STATION AND DATA

WAZ520-230710-
EAST SLOPES OF WASHINGTON CASCADES

CITY            SKY/WX      TMP DP  RH  WIND    PRES   REMARKS
#CLE ELUM HS    N/A         53  52  96  NW1     30.08R
#CLE ELUM 2NW   N/A         52  51  96  SW1     N/A
#CLE ELUM LAKE  N/A         52  50  93  CALM    30.06R
#CLIFFDEL 2NW   N/A         55  49  80  CALM    N/A
#GLENWOOD       N/A         55  50  83  CALM    30.05R
#NELSON         N/A         52  50  93  CALM    30.09R
#NELSON 3SW     N/A         50  49  96  CALM    30.27R
#NILE           N/A         55  53  93  CALM    29.36R
#RONALD 2NW     N/A         53  49  86  NE1     30.01R
#TEANAWAY 4NE   N/A         54  52  93  CALM    N/A
#TROUT LAKE 1NE N/A         53  51  93  CALM    30.05R
$$

WAZ521-230710-
SIMCOE HIGHLANDS

CITY            SKY/WX      TMP DP  RH  WIND    PRES   REMARKS
#BICKLETON HS   N/A         59  40  49  N10     30.12S
#CENTERVILLE 4W N/A         64  48  56  N3      29.83R
#CENTERVILLE 1SWN/A         61  48  62  NE2     29.98R
#GOLDENDALE     N/A         63  48  58  NE1     N/A
#GOLDENDALE 1NE N/A         62  45  54  CALM    N/A
#GOLDENDALE 1S  N/A         62  50  65  CALM    30.04R
#GOLDENDALE 5WNWN/A         N/A N/A N/A S2      30.02R
#GOODNOE HILLS  N/A         71  49  46  N17G24  29.98R
#LYLE 6NE       N/A         65  53  65  CALM    29.98R
$$

WAZ026-230710-
KITTITAS VALLEY

CITY            SKY/WX      TMP DP  RH  WIND    PRES   REMARKS
ELLENSBURG AP   CLOUDY      63  52  67  NW8     30.10S
6HR MIN TEMP:   62; 6HR MAX TEMP:   72; 6HR PCP:  TRACE;

#ELLENSBURG CWU N/A         60  52  75  W6      30.01R
#ELLENSBURG 3NE N/A         60  52  75  NW1     30.10R
#ELLENSBURG     N/A         64  56  75  W6      N/A
#ELLENSBURG 1E  N/A         62  49  62  CALM    N/A
#KITTITAS 3S    N/A         58  53  83  CALM    30.02S
#THORP 6N       N/A         56  51  83  N1      30.08R
$$

WAZ027-230710-
YAKIMA VALLEY

CITY            SKY/WX      TMP DP  RH  WIND    PRES   REMARKS
SUNNYSIDE AP    PTCLDY      66  48  52  W3      30.03R
YAKIMA AIRPORT  PTCLDY      64  55  73  W7      30.08R
6HR MIN TEMP:   63; 6HR MAX TEMP:   82; 6HR PCP:  0.17;

YAKIMA-VAGABOND CLOUDY      66  48  52  E3      30.09R
#COWICHE 1N     N/A         63  51  65  NW3     30.26R
#DONALD 2NE     N/A         67  48  50  SW1     30.39R
#GRANDVIEW      N/A         69  49  49  CALM    30.02R
#MABTON         N/A         66  52  61  SW5     30.03R
#MOXEE 2E       N/A         66  40  38  W3      29.98R
#NACHES 2SW     N/A         63  52  67  W5      30.01S
#OUTLOOK DOT    N/A         N/A N/A N/A W5      N/A
#SELAH 8E       N/A         60  50  69  CALM    N/A
#TERRACE HTS    N/A         65  50  58  NW3     29.98S
#TOPPENISH      N/A         67  50  54  N8      29.94R
#WAPATO 4NE     N/A         67  48  50  SW1     30.39R
#WEST VALLEY    N/A         65  51  60  CALM    30.02R
#W YAKIMA       N/A         66  51  58  N1      30.03R
#WHITE SWAN 5E  N/A         62  57  84  SW3     30.04R
#WILEY CITY 3W  N/A         70  61  73  CALM    30.08R
$$

WAZ028-230710-
LOWER COLUMBIA BASIN...WASHINGTON

CITY            SKY/WX      TMP DP  RH  WIND    PRES   REMARKS
PASCO           PTCLDY      70  51  51  NW7     30.00R
6HR MIN TEMP:   69; 6HR MAX TEMP:   84;

PROSSER AWOS    N/A         66  52  61  SW8     30.06R
RICHLAND AWOS   PTCLDY      68  52  57  NW12    30.02R
#BASIN CITY 5SW N/A         65  54  68  CALM    30.03R
#BENTON CITY    N/A         70  53  55  NW8     29.90R
#CONNELL 5N     N/A         65  51  60  N7      29.98R
#CONNELL 5NW    N/A         65  51  60  E2      29.96R
#ELTOPIA        N/A         67  53  61  N3      29.95R
#ELTOPIA 6NW    N/A         63  54  72  N7      28.98R
#KENNEWICK 3S   N/A         70  52  53  CALM    29.99R
#PASCO-BROADMOORN/A         71  52  51  NW5     29.89
#PATERSON       N/A         70  53  55  NE10    29.96R
#PROSSER        N/A         70  49  47  W5      30.00R
#SAGEMOOR 2W    N/A         65  55  70  NW3     29.84R
#TOUCHET 2S     N/A         63  51  65  W2      29.95R
#WEST PASCO     N/A         71  51  49  NW2     30.00R
$$

WAZ029-230710-
FOOTHILLS OF THE BLUES...WASHINGTON

CITY            SKY/WX      TMP DP  RH  WIND    PRES   REMARKS
WALLA WALLA AP  MOCLDY      68  47  47  S8      30.00R
6HR MIN TEMP:   65; 6HR MAX TEMP:   71; 6HR PCP:  0.01;

#COLLEGE PLACE  N/A         67  49  52  E3      29.98R
#DAYTON SCHOOL  N/A         62  46  56  NE2     30.00R
#LOWDEN 2SE     N/A         65  52  63  NW1     29.95R
#PLEASANT VIEW 1N/A         63  50  62  W1      30.00R
#PRESCOTT       N/A         61  56  84  CALM    29.95R
#SUDBURY        N/A         67  N/A N/A W3      N/A
#WHITMAN COLLEGEN/A         66  50  56  E1      30.00R
#WAITSBURG 8N   N/A         57  41  55  CALM    29.94R
#WALLA WALLA 5E N/A         74  47  38  E15     N/A
$$

WAZ030-230710-
BLUE MOUNTAINS...WASHINGTON

CITY            SKY/WX      TMP DP  RH  WIND    PRES   REMARKS
$$

ORZ009-041-WAZ024-230710-
COLUMBIA RIVER GORGE

CITY            SKY/WX      TMP DP  RH  WIND    PRES   REMARKS
HOOD RIVER AP   PTCLDY      59  55  87  CALM    30.06R
THE DALLES AP   CLEAR       70  54  57  NW8     30.02R
6HR MIN TEMP:   70; 6HR MAX TEMP:   81;

#ARLINGTON AIRPON/A         72  49  44  N18     N/A
#ARLINGTON HS   N/A         75  48  38  S2      29.89R
#MARYHILL 2W    N/A         72  53  51  E1      N/A
#MOSIER 1S      N/A         65  43  45  CALM    30.09S
#MURDOCK        N/A         72  58  61  W12     30.02S

$$

ORZ510-230710-
NORTH CENTRAL OREGON

CITY            SKY/WX      TMP DP  RH  WIND    PRES   REMARKS
#CHENOWITH 1W   N/A         64  51  63  W18     N/A
#COW CYN RST AREN/A         60  46  60  N7      N/A
#DUFUR 9E       N/A         63  51  65  W5      30.05R
#GRASS VALLEY   N/A         62  51  67  NW2     N/A
#GRASS VALLEY 1SN/A         63  50  62  CALM    30.03R
#KENT DOT       N/A         61  48  62  N6      N/A
#MAUPIN SCHOOL  N/A         66  50  56  W1      28.92R
#MORO SCHOOL    N/A         65  56  73  NW7     30.08R
#SHANIKO 5WSW   N/A         58  44  60  N14     N/A
#SHANIKO 4NW    N/A         57  47  69  N10     30.12R
#TYGH VALLEY 2NEN/A         67  50  54  W2      30.00R
#WAPANITIA AIRPON/A         60  49  67  W1      30.02S
#WASCO DOT      N/A         60  52  75  CALM    N/A
#WASCO AIRPORT  N/A         64  49  58  W3      N/A
#WASCO 5NE      N/A         60  54  81  CALM    30.01R
$$

ORZ511-230710-
CENTRAL OREGON

CITY            SKY/WX      TMP DP  RH  WIND    PRES   REMARKS
BEND AIRPORT    CLEAR       57  46  67  NW5     30.14R
MADRAS AIRPORT  CLEAR       61  46  58  NW9     30.11R
REDMOND AIRPORT MOCLDY      60  43  53  N6      30.11R
6HR MIN TEMP:   60; 6HR MAX TEMP:   76;

#BEND 6E        N/A         56  44  64  CALM    29.96R
#BEND-AWBREY    N/A         58  47  67  S2      30.02R
#BEND-KIM LN    N/A         55  46  72  CALM    30.10R
#CROOKED RVR RANN/A         61  46  58  N21G30  30.01R
#CULVER         N/A         59  47  64  CALM    30.07R
#LAKE BILLY CHINN/A         61  23  23  CALM    30.16R
#POWELL BUTTE 3EN/A         57  45  64  W3      N/A
#POWELL BUTTE   N/A         58  44  60  NW1     29.77R
#PRINEVILLE 3N  N/A         59  46  62  CALM    29.97R
#WARM SPRINGS   N/A         66  49  54  SW7     30.05R


ORZ509-230710-
EAST SLOPES OF OREGON CASCADES

CITY            SKY/WX      TMP DP  RH  WIND    PRES   REMARKS
#BLUE BOX PASS  N/A         52  N/A N/A N7      N/A
#BLACK BUTTE RNCN/A         52  47  83  CALM    30.03R
#CAMP SHERMAN   N/A         49  46  89  CALM    30.03R
#LA PINE DOT    N/A         50  44  80  CALM    N/A
#LA PINE 4NW    N/A         48  43  83  CALM    30.09R
#LAVA BUTTE DOT N/A         53  40  61  CALM    N/A
#SISTERS AIRPOR N/A         51  51  100 N2      30.10R
#SISTERS ODOT   N/A         49  N/A N/A CALM    N/A
#SISTERS 1NW    N/A         51  48  89  N5      N/A
#SISTERS 3N     N/A         49  43  80  CALM    N/A
#SUNRIVER       N/A         55  45  69  CALM    29.92R
#SUTTLE LK DOT  N/A         49  43  80  CALM    N/A
#TUMALO 3W      N/A         58  46  64  W3      29.92R
#WANOGA BUTTE D N/A         48  41  77  NE3     N/A

$$

ORZ044-230710-
LOWER COLUMBIA BASIN...OREGON

CITY            SKY/WX      TMP DP  RH  WIND    PRES   REMARKS
HERMISTON       PTCLDY      72  50  46  N13     29.98R
6HR MIN TEMP:   70; 6HR MAX TEMP:   81; 6HR PCP:  TRACE;

#BOARDMAN SCHOOLN/A         74  52  46  N8      29.99R
#BOARDMAN 3W    N/A         71  51  49  N2      29.71R
#BOARDMAN 8SW   N/A         71  53  53  N6      29.99R
#ECHO 8SW       N/A         67  50  54  NW6     29.97R
#IONE SCHOOL    N/A         67  52  59  CALM    30.02R
#IRRIGON 4NW    N/A         73  53  49  N7      N/A
#UMATILLA SCHOOLN/A         71  59  66  N6      30.03R
#UMATILLA       N/A         72  50  46  N8      29.97R
$$

ORZ507-230710-
NORTHERN FOOTHILLS OF THE BLUES

CITY            SKY/WX      TMP DP  RH  WIND    PRES   REMARKS
PENDLETON AIRPT PTCLDY      63  47  56  N8      29.99S
6HR MIN TEMP:   63; 6HR MAX TEMP:   79;

#ADAMS 3WNW     N/A         61  47  60  E3      29.96R
#ATHENA         N/A         62  48  60  S1      29.98R
#HELIX SCHOOL   N/A         63  46  54  E8      29.96R
#HELIX 3N       N/A         61  45  56  E15     29.98R
#HOLDMAN 5SE    N/A         63  48  58  N1      30.01R
#HOLDMAN 6E     N/A         62  47  58  S3      29.78R
#M-F GROVE ELEM N/A         67  47  49  E1      29.99R
#M-FREEWATER 5SEN/A         64  49  58  E1      29.99R
#PDT AQUATIC CTRN/A         66  45  47  E7      29.98R
#PENDLETON DNTN N/A         67  42  40  CALM    29.95S
#PDT SUNRIDGE   N/A         64  49  58  CALM    30.01R
#PENDLETON 7NW  N/A         65  50  58  CALM    25.33S
#PILOT ROCK     N/A         63  46  54  CALM    30.03R
#TUTUILLA       N/A         61  50  67  E1      29.91R
#UMAPINE 2E     N/A         64  53  67  SE7     29.95S
#WESTON SCHOOL  N/A         62  46  56  S7      29.98R

$$

ORZ508-230710-
SOUTHERN FOOTHILLS OF THE BLUES

CITY            SKY/WX      TMP DP  RH  WIND    PRES   REMARKS
LEXINGTON       MOCLDY      66  46  48  CALM    30.06R
#AJAX           N/A         65  45  48  N5      30.02R
#CONDON SCHOOL  N/A         60  49  67  CALM    30.05R
#CONDON 5W      N/A         56  47  72  NW5     30.09R
#FOSSIL SCHOOL  N/A         62  48  60  CALM    30.06R
#HEPPNER 4NE    N/A         60  49  67  CALM    29.99R
#LEXINGTON 2SE  N/A         68  49  51  CALM    30.01R
#MIKKALO        N/A         63  46  54  CALM    30.06R
#OLEX 4N        N/A         65  52  63  CALM    30.02R
#RUGGS 5NE      N/A         59  47  64  NE2     30.27R
#RUGGS 2SW      N/A         60  48  64  W6      30.04R

$$

ORZ502-503-230710-
BLUE MOUNTAINS

CITY            SKY/WX      TMP DP  RH  WIND    PRES   REMARKS
MEACHAM         PTCLDY      48  47  96  CALM    30.09R
6HR MIN TEMP:   48; 6HR MAX TEMP:   64; 6HR PCP:  0.05;

#BATTLE MTN DOT N/A         53  51  93  N1      N/A
#HARDMAN 10S    N/A         54  46  74  CALM    30.17R
#HEPPNER 15SE   N/A         51  48  89  S2      30.04R
#LADD CYN SMT   N/A         52  43  71  NW8     N/A
#LADD CREEK ODOTN/A         50  49  96  CALM    N/A
#LONG CREEK HS  N/A         53  45  74  CALM    N/A
#N POWDER DOT   N/A         54  50  86  N12     N/A
#PIKES PEAK     N/A         60  43  53  E8      27.99S
#TOLLGATE       N/A         48  45  89  CALM    30.04F
#TOLLGATE 9W    N/A         55  46  72  E6      N/A
#TROY SCHOOL    N/A         57  54  90  CALM    29.85F
#UKIAH          N/A         54  44  69  CALM    30.05R
#WESTON 4E      N/A         56  46  69  E7      29.92R
$$

ORZ505-230710-
JOHN DAY BASIN

CITY            SKY/WX      TMP DP  RH  WIND    PRES   REMARKS
JOHN DAY        PTCLDY      60  44  55  N3      30.10R
#JOHN DAY KJDY  N/A         58  46  64  CALM    30.21R
#MONUMENT HS    N/A         62  49  62  E7      30.06R
#MT. VERNON 5SE N/A         57  41  55  CALM    30.06R
#WINLOCK        N/A         52  48  86  CALM    30.17R
$$

ORZ506-230710-
OCHOCO AND JOHN DAY HIGHLANDS

CITY            SKY/WX      TMP DP  RH  WIND    PRES   REMARKS
#BUCK CREEK DOT N/A         58  45  62  NW6     N/A
#HORSE RIDGE DO N/A         56  43  62  NW10    N/A
#KEYES SMT DOT  N/A         57  40  53  NW6     N/A
#PAULINA SCHOOL N/A         N/A N/A N/A CALM    30.09R
#PRAIRIE CITY   N/A         46  39  76  CALM    30.14R
#SENECA 9NW     N/A         54  40  59  CALM    29.96R
$$

ORZ049-230710-
GRANDE RONDE VALLEY

CITY            SKY/WX      TMP DP  RH  WIND    PRES   REMARKS
LA GRANDE       MOCLDY      57  39  51  N10     30.05F
#COVE           N/A         53  50  89  CALM    29.98R
#COVE SCHOOL    N/A         54  49  83  CALM    30.04R
#COVE 6NW       N/A         54  46  74  N6      30.04R
#ELGIN 3N       N/A         55  46  72  CALM    29.78F
#ELGIN 1E       N/A         55  49  80  CALM    N/A
#IMBLER SCHOOL  N/A         55  47  74  NW6     30.01F
#ISLAND CITY 4N N/A         58  47  67  N2      29.93R
#LADD CYN DOT   N/A         56  47  72  SW1     N/A
#LA GRANDE ELEM N/A         59  46  62  CALM    30.04F
#UNION 1S       N/A         54  50  86  W1      29.91R
$$

ORZ050-230710-
WALLOWA COUNTY

CITY            SKY/WX      TMP DP  RH  WIND    PRES   REMARKS
#ENTERPRISE AP  N/A         50  45  83  N3      30.03F
#ENTERPRISE HS  N/A         50  48  93  CALM    30.09F
#IMNAHA SCHOOL  N/A         54  51  90  CALM    30.04S
#IMNAHA 10S     N/A         49  47  93  SW2     30.07F
#JOSEPH 3N      N/A         47  43  86  CALM    30.10F
#JOSEPH 3W      N/A         46  45  96  SW1     29.94F
#MT HOWARD 8000 N/A         37  36  96  NW3     30.19S
#PROMISE 1S     N/A         50  48  93  CALM    30.09F
#SHEEP RDG 7000 N/A         41  37  86  CALM    29.98F
#WALLOWA SCHOOL N/A         51  49  93  CALM    30.92F



$$



USA.gov is the U.S. government's official web portal to all federal, state and local government web resources and services.